When you browse on this site, cookies collect data to enhance your experience and personalize the content and advertising you see.
Visit our Privacy Policy to learn more. By continuing to use the site, you agree to this use of cookies and data.
  • In Austria
  • List of Countries
  • For 7 days
  • Water Temperature
  • Weather Map
  • News
  • Weather Widgets
  • user-avatar
    Login

    Hourly Weather San Agustin Tlaxiaca

    Today, 5 June, Friday

    Time Temperature Precipitation Wind Pressure Humidity
    00:00 +14°C° 0 mm 1 mps 573 mmHg 89%
    01:00 +14°C° 0 mm 1 mps 572 mmHg 89%
    02:00 +14°C° 0 mm 1 mps 572 mmHg 89%
    03:00 +13°C° 0 mm 1 mps 572 mmHg 91%
    04:00 +13°C° 0 mm 1 mps 572 mmHg 92%
    05:00 +12°C° 0 mm 1 mps 572 mmHg 93%
    06:00 +14°C° 0 mm 1 mps 573 mmHg 81%
    07:00 +16°C° 0 mm 1 mps 574 mmHg 68%
    08:00 +19°C° 0 mm 1 mps 575 mmHg 56%
    09:00 +20°C° 0 mm 2 mps 575 mmHg 48%
    10:00 +22°C° 0 mm 3 mps 576 mmHg 41%
    11:00 +23°C° 0 mm 4 mps 576 mmHg 34%
    12:00 +25°C° 0 mm 5 mps 576 mmHg 35%
    13:00 +24°C° 0 mm 6 mps 575 mmHg 36%
    14:00 +24°C° 0 mm 6 mps 575 mmHg 36%
    15:00 +23°C° 0 mm 6 mps 574 mmHg 42%
    16:00 +21°C° 0 mm 6 mps 574 mmHg 49%
    17:00 +20°C° 0 mm 6 mps 573 mmHg 55%
    18:00 +17°C° 0 mm 5 mps 573 mmHg 62%
    19:00 +17°C° 0 mm 4 mps 573 mmHg 69%
    20:00 +14°C° 0 mm 3 mps 573 mmHg 77%
    21:00 +15°C° 0 mm 2 mps 573 mmHg 80%
    22:00 +14°C° 0 mm 2 mps 573 mmHg 84%
    23:00 +14°C° 0 mm 1 mps 573 mmHg 88%

    Tomorrow, 6 June, Saturday

    Time Temperature Precipitation Wind Pressure Humidity
    00:00 +13°C° 0 mm 1 mps 573 mmHg 88%
    01:00 +12°C° 0 mm 0 mps 572 mmHg 89%
    02:00 +11°C° 0 mm 0 mps 572 mmHg 90%
    03:00 +11°C° 0 mm 0 mps 571 mmHg 90%
    04:00 +11°C° 0 mm 0 mps 571 mmHg 90%
    05:00 +11°C° 0 mm 1 mps 571 mmHg 90%
    06:00 +13°C° 0 mm 0 mps 572 mmHg 77%
    07:00 +15°C° 0 mm 0 mps 574 mmHg 65%
    08:00 +17°C° 0 mm 0 mps 575 mmHg 52%
    09:00 +21°C° 0 mm 1 mps 575 mmHg 45%
    10:00 +21°C° 0 mm 2 mps 576 mmHg 38%
    11:00 +24°C° 0 mm 2 mps 576 mmHg 31%
    12:00 +25°C° 0 mm 3 mps 576 mmHg 30%
    13:00 +25°C° 0 mm 4 mps 575 mmHg 30%
    14:00 +26°C° 0 mm 5 mps 575 mmHg 30%
    15:00 +25°C° 0 mm 5 mps 574 mmHg 39%
    16:00 +22°C° 0 mm 5 mps 574 mmHg 47%
    17:00 +21°C° 0 mm 5 mps 573 mmHg 56%
    18:00 +19°C° 0 mm 4 mps 573 mmHg 65%
    19:00 +18°C° 0 mm 3 mps 573 mmHg 74%
    20:00 +16°C° 0 mm 2 mps 573 mmHg 83%
    21:00 +15°C° 0 mm 2 mps 573 mmHg 84%
    22:00 +15°C° 0 mm 1 mps 573 mmHg 86%
    23:00 +14°C° 0 mm 1 mps 573 mmHg 87%

    Day after tomorrow, 7 June, Sunday

    Time Temperature Precipitation Wind Pressure Humidity
    00:00 +14°C° 0 mm 1 mps 572 mmHg 86%
    01:00 +12°C° 0 mm 0 mps 572 mmHg 85%
    02:00 +12°C° 0 mm 0 mps 571 mmHg 85%
    03:00 +11°C° 0 mm 0 mps 571 mmHg 84%
    04:00 +11°C° 0 mm 0 mps 571 mmHg 83%
    05:00 +11°C° 0 mm 0 mps 570 mmHg 82%
    06:00 +14°C° 0 mm 1 mps 572 mmHg 70%
    07:00 +18°C° 0 mm 1 mps 573 mmHg 59%
    08:00 +21°C° 0 mm 1 mps 575 mmHg 47%
    09:00 +21°C° 0 mm 2 mps 575 mmHg 40%
    10:00 +24°C° 0 mm 2 mps 576 mmHg 33%
    11:00 +26°C° 0 mm 2 mps 576 mmHg 27%
    12:00 +27°C° 0 mm 3 mps 576 mmHg 25%
    13:00 +27°C° 0 mm 4 mps 576 mmHg 24%
    14:00 +28°C° 0 mm 5 mps 576 mmHg 22%
    15:00 +27°C° 0 mm 5 mps 575 mmHg 27%
    16:00 +26°C° 0 mm 5 mps 575 mmHg 32%
    17:00 +25°C° 0 mm 5 mps 574 mmHg 37%
    18:00 +22°C° 0 mm 4 mps 574 mmHg 47%
    19:00 +20°C° 0 mm 3 mps 573 mmHg 57%
    20:00 +18°C° 0 mm 2 mps 573 mmHg 66%
    21:00 +19°C° 0 mm 1 mps 573 mmHg 67%
    22:00 +18°C° 0 mm 1 mps 573 mmHg 68%
    23:00 +18°C° 0 mm 1 mps 573 mmHg 68%

    8 June, Monday

    Time Temperature Precipitation Wind Pressure Humidity
    00:00 +18°C° 0 mm 1 mps 573 mmHg 69%
    01:00 +18°C° 0 mm 1 mps 573 mmHg 69%
    02:00 +18°C° 0 mm 1 mps 573 mmHg 69%
    03:00 +18°C° 0 mm 1 mps 573 mmHg 72%
    04:00 +16°C° 0 mm 1 mps 572 mmHg 74%
    05:00 +16°C° 0 mm 1 mps 572 mmHg 77%
    06:00 +18°C° 0 mm 1 mps 573 mmHg 69%
    07:00 +19°C° 0 mm 2 mps 574 mmHg 61%
    08:00 +21°C° 0 mm 2 mps 575 mmHg 53%
    09:00 +24°C° 0 mm 2 mps 576 mmHg 46%
    10:00 +26°C° 0 mm 2 mps 576 mmHg 39%
    11:00 +27°C° 0 mm 3 mps 577 mmHg 32%
    12:00 +28°C° 0 mm 3 mps 576 mmHg 30%
    13:00 +28°C° 0 mm 3 mps 576 mmHg 29%
    14:00 +28°C° 0 mm 4 mps 576 mmHg 28%
    15:00 +27°C° 0 mm 3 mps 575 mmHg 32%
    16:00 +26°C° 0 mm 3 mps 575 mmHg 36%
    17:00 +26°C° 0 mm 3 mps 575 mmHg 40%
    18:00 +24°C° 0.1 mm 2 mps 574 mmHg 47%
    19:00 +23°C° 0.1 mm 2 mps 574 mmHg 53%
    20:00 +20°C° 0.1 mm 2 mps 574 mmHg 60%
    21:00 +19°C° 0 mm 2 mps 574 mmHg 62%
    22:00 +19°C° 0 mm 2 mps 574 mmHg 64%
    23:00 +19°C° 0 mm 1 mps 574 mmHg 66%

    9 June, Tuesday

    Time Temperature Precipitation Wind Pressure Humidity
    00:00 +19°C° 0 mm 1 mps 574 mmHg 68%
    01:00 +18°C° 0 mm 1 mps 573 mmHg 69%
    02:00 +16°C° 0 mm 0 mps 573 mmHg 70%
    03:00 +16°C° 0 mm 0 mps 573 mmHg 71%
    04:00 +16°C° 0 mm 1 mps 573 mmHg 72%
    05:00 +16°C° 0 mm 1 mps 573 mmHg 73%
    06:00 +19°C° 0 mm 1 mps 574 mmHg 65%
    07:00 +21°C° 0 mm 1 mps 575 mmHg 56%
    08:00 +23°C° 0 mm 1 mps 576 mmHg 48%
    09:00 +25°C° 0 mm 2 mps 577 mmHg 40%
    10:00 +27°C° 0 mm 3 mps 577 mmHg 32%
    11:00 +28°C° 0 mm 4 mps 578 mmHg 24%
    12:00 +29°C° 0 mm 5 mps 578 mmHg 22%
    13:00 +29°C° 0 mm 6 mps 578 mmHg 21%
    14:00 +30°C° 0 mm 7 mps 577 mmHg 19%
    15:00 +28°C° 0 mm 7 mps 577 mmHg 22%
    16:00 +27°C° 0 mm 7 mps 576 mmHg 24%
    17:00 +26°C° 0 mm 7 mps 575 mmHg 26%
    18:00 +23°C° 0 mm 5 mps 575 mmHg 36%
    19:00 +21°C° 0 mm 4 mps 575 mmHg 46%
    20:00 +19°C° 0 mm 2 mps 574 mmHg 55%
    21:00 +18°C° 0 mm 2 mps 574 mmHg 61%
    22:00 +18°C° 0 mm 2 mps 574 mmHg 67%
    23:00 +18°C° 0 mm 1 mps 574 mmHg 72%

    10 June, Wednesday

    Time Temperature Precipitation Wind Pressure Humidity
    00:00 +16°C° 0 mm 1 mps 574 mmHg 75%
    01:00 +16°C° 0 mm 1 mps 574 mmHg 78%
    02:00 +14°C° 0 mm 0 mps 573 mmHg 80%
    03:00 +14°C° 0 mm 0 mps 573 mmHg 82%
    04:00 +13°C° 0 mm 0 mps 573 mmHg 83%
    05:00 +13°C° 0 mm 0 mps 573 mmHg 84%
    06:00 +16°C° 0 mm 1 mps 574 mmHg 70%
    07:00 +18°C° 0 mm 2 mps 575 mmHg 57%
    08:00 +20°C° 0 mm 2 mps 577 mmHg 43%
    09:00 +22°C° 0 mm 3 mps 577 mmHg 37%
    10:00 +23°C° 0 mm 4 mps 578 mmHg 31%
    11:00 +26°C° 0 mm 5 mps 578 mmHg 25%
    12:00 +26°C° 0 mm 6 mps 578 mmHg 26%
    13:00 +26°C° 0 mm 7 mps 577 mmHg 26%
    14:00 +27°C° 0 mm 8 mps 577 mmHg 26%
    15:00 +24°C° 0 mm 8 mps 576 mmHg 33%
    16:00 +23°C° 0 mm 8 mps 576 mmHg 39%
    17:00 +21°C° 0 mm 7 mps 575 mmHg 45%
    18:00 +19°C° 0 mm 6 mps 575 mmHg 57%
    19:00 +18°C° 0 mm 4 mps 575 mmHg 68%
    20:00 +16°C° 0 mm 2 mps 574 mmHg 79%
    21:00 +15°C° 0 mm 2 mps 574 mmHg 82%
    22:00 +15°C° 0 mm 1 mps 574 mmHg 86%
    23:00 +14°C° 0 mm 1 mps 574 mmHg 89%
    Show more